Temp
24 23 23 23 22 22 22 22 22 22 22 22 22 22 22 21 21 21 21 21 21 21 21 20 20 20 20 20 20 20 20 20 20 20 20 20 20 20 20 20 20 20
24 23 23 22 22 22 22 22 22 22 21 21 21 21 21 21 21 21 21 21 21 21 21 20 20 20 20 20 20 20 20 20 20 20 20 20 20 20 20 20 20 20
23 23 23 23 23 22 22 22 22 22 22 21 21 21 21 21 21 21 21 21 20 20 20 20 20 20 20 20 20 20 20 20 20 20 20 20 20 20 20 20 20 20
23 23 23 23 23 22 22 22 22 22 22 22 21 21 21 21 21 21 21 21 21 20 20 20 20 20 20 20 20 20 20 20 20 20 20 20 20 19 19 19 20 20
23 23 23 22 22 22 22 22 22 22 22 22 21 21 21 21 21 21 21 21 21 21 21 21 21 20 20 20 20 20 20 20 20 20 20 20 20 19 19 19 19 19
23 23 22 22 22 22 22 22 22 22 22 22 22 21 21 21 21 21 21 21 21 21 21 21 21 21 20 20 20 20 20 20 20 20 20 19 19 19 19 19 19 19
23 23 22 22 22 22 22 22 22 22 22 22 21 21 21 21 21 21 21 21 21 21 21 21 20 20 20 20 20 20 20 20 20 20 20 19 19 19 19 19 19 19
23 23 23 22 22 22 22 22 23 22 22 22 22 21 21 21 21 21 21 21 21 21 21 21 20 20 20 20 20 20 20 20 20 20 19 19 19 19 19 19 19 19
23 23 23 23 23 22 23 23 23 23 23 23 22 22 22 21 21 21 21 20 20 20 21 21 20 20 20 20 20 20 20 20 20 19 19 19 19 19 19 19 18 18
23 23 23 23 23 23 23 24 24 24 24 23 23 22 22 22 21 21 21 21 20 20 20 20 20 20 20 20 20 20 19 19 19 19 19 19 19 19 19 18 18 18
23 23 23 23 23 23 23 24 24 24 23 23 22 23 23 22 22 22 22 21 21 21 20 20 20 20 20 20 20 20 19 19 19 19 19 19 19 19 18 18 18 17
24 24 23 23 23 23 23 23 23 23 23 23 22 22 22 22 22 22 22 22 22 21 21 20 19 19 19 18 19 19 19 19 19 19 19 19 19 18 18 18 18 17
24 24 24 24 24 23 23 23 23 23 23 22 21 22 22 23 23 23 22 22 22 22 21 21 20 19 19 18 18 18 18 19 19 19 19 19 18 18 18 18 18 17
25 24 24 24 23 23 23 23 23 22 22 21 21 21 22 22 23 23 22 22 22 22 22 21 20 19 20 20 19 18 18 19 19 19 19 19 18 18 18 18 18 17
24 24 24 24 23 23 23 22 22 22 21 21 21 22 22 22 22 22 22 21 21 22 22 21 20 20 20 20 19 18 18 19 19 18 19 19 18 18 18 18 17 17
24 24 24 23 23 23 23 22 22 22 21 21 21 22 22 22 22 21 21 21 22 22 22 21 20 20 19 19 19 19 19 18 18 18 19 19 18 18 18 18 17 17
24 24 24 23 23 23 22 22 22 22 21 21 21 22 22 22 22 22 21 21 21 22 21 21 21 20 19 19 19 19 18 18 18 18 19 19 19 18 18 18 17 17
24 24 24 23 23 23 22 22 22 22 22 22 22 22 22 22 22 22 21 21 21 22 21 21 21 20 20 20 19 19 18 18 18 18 19 19 19 19 18 18 17 17
24 24 24 23 23 23 23 23 22 22 22 22 22 22 22 22 22 22 22 21 21 21 21 20 20 19 20 20 19 19 19 18 17 18 18 19 19 18 18 18 18 17
25 24 24 24 23 23 23 23 22 22 22 22 22 22 22 22 22 22 22 21 20 20 20 20 19 19 20 20 19 20 19 18 18 17 18 18 18 18 18 18 18 17
25 24 24 24 23 23 23 23 23 22 22 22 22 22 22 22 22 22 22 21 20 20 20 20 20 20 19 19 19 19 19 18 18 17 17 18 18 18 18 18 18 17
25 25 24 24 23 23 23 23 23 23 22 22 22 22 22 22 22 22 22 21 21 20 20 20 20 19 19 19 19 19 19 18 18 17 18 19 19 18 18 18 18 17
25 25 24 24 23 23 23 23 23 23 22 22 22 22 22 22 22 21 21 21 21 20 20 20 20 19 19 19 19 19 18 18 17 18 18 18 18 18 18 18 18 17
25 25 24 24 23 23 23 24 23 23 23 23 22 22 22 22 21 21 21 21 21 20 20 20 20 20 19 19 19 19 18 18 17 18 18 17 17 18 19 18 18 17
25 25 24 24 23 23 24 24 23 23 23 23 22 22 22 22 22 21 21 21 21 21 20 20 20 20 19 18 19 18 19 18 17 17 18 17 16 17 19 18 17 17
25 24 24 24 24 24 24 23 23 23 23 22 22 22 22 22 22 22 21 21 21 21 21 20 20 20 19 18 18 18 18 18 17 16 17 17 17 18 19 18 18 18
Height
825 825 825 825 825 825 825 825 824 824 823 822 822 821 820 819 818 818 817 817 816 816 815 814 814 813 812 811 810 809 808 806 805 805 804 802 801 800 799 798 797 796
824 824 824 824 824 824 824 824 824 823 823 822 821 820 820 819 818 817 817 816 816 815 814 814 813 812 811 810 809 808 807 806 805 804 803 802 801 800 798 797 796 795
823 823 823 823 823 823 823 823 823 822 822 821 820 820 819 818 817 817 816 815 815 814 814 813 812 812 810 809 808 807 806 805 804 803 803 802 801 799 798 796 795 794
822 822 822 822 822 822 823 822 822 822 821 820 820 819 818 818 817 816 815 815 814 813 813 812 811 810 809 808 807 806 804 804 803 803 802 801 800 799 797 796 795 793
821 821 821 822 822 822 822 821 821 821 820 820 819 819 818 817 816 815 814 814 813 812 811 810 810 809 808 806 805 804 803 802 802 801 801 799 798 798 796 795 794 792
819 820 820 821 821 821 821 821 821 820 820 819 818 818 817 816 815 814 813 812 811 810 809 809 808 807 806 804 803 802 801 800 800 800 799 798 797 797 795 794 793 791
818 818 819 820 819 820 820 820 820 819 819 818 817 817 816 815 814 813 812 811 810 809 808 807 806 804 804 803 802 801 800 799 799 798 798 797 796 795 794 793 791 789
816 817 817 818 818 819 819 818 818 817 816 816 815 815 814 813 812 811 810 809 808 807 806 805 803 802 802 801 800 800 799 798 798 797 796 795 794 794 792 791 790 787
815 815 816 816 816 817 817 816 815 814 814 813 813 813 812 811 811 809 808 807 806 805 804 802 801 800 799 799 799 798 797 796 796 795 795 794 793 792 791 790 788 786
813 813 814 814 814 814 814 813 812 811 811 811 812 811 810 809 809 807 806 805 804 803 802 801 800 798 798 797 797 796 796 795 794 793 793 792 791 790 789 788 787 784
811 812 812 812 812 812 812 811 810 810 810 810 810 809 808 807 806 805 804 803 801 801 800 799 798 798 798 797 796 795 794 793 792 791 791 790 789 788 787 786 785 783
809 810 810 810 810 810 810 809 809 809 809 808 808 807 806 805 804 803 802 801 799 798 797 796 796 797 797 797 795 794 793 791 790 789 789 788 788 787 786 784 783 781
806 807 808 808 808 808 808 808 808 808 807 807 807 806 805 803 802 801 800 799 797 796 795 794 794 794 794 794 793 793 792 791 789 788 787 787 786 785 784 782 781 779
804 805 805 806 806 806 807 807 807 807 807 807 806 804 803 801 800 799 798 797 796 795 793 792 792 791 791 790 790 790 791 789 787 786 785 784 784 782 781 780 779 777
802 803 803 804 805 804 805 805 806 806 805 805 804 802 801 800 799 798 797 795 794 793 792 791 791 790 789 788 788 787 788 787 786 785 783 782 781 780 779 778 777 775
800 802 802 802 802 803 803 803 804 804 803 803 802 801 800 799 797 797 795 794 793 791 790 789 789 788 787 787 786 786 786 785 784 783 782 780 779 778 777 775 774 773
798 799 800 800 801 801 801 801 801 801 801 801 800 799 798 797 796 795 794 793 792 790 789 788 787 787 786 786 786 785 784 783 782 781 779 778 777 775 774 773 772 770
797 797 798 799 799 799 799 799 799 799 799 798 797 796 796 794 794 794 793 792 791 789 788 787 786 786 785 784 784 783 782 781 780 779 777 776 774 773 772 771 769 768
795 795 796 797 797 797 797 796 797 797 796 796 795 794 793 792 792 791 791 790 789 788 788 787 786 786 784 783 782 781 780 779 778 777 775 774 772 770 770 768 767 765
792 793 794 794 794 795 795 794 794 794 794 794 793 792 791 791 790 789 788 788 787 787 786 785 785 785 783 781 780 779 778 777 775 775 773 772 770 769 768 766 765 763
789 790 791 791 792 792 792 792 792 791 792 792 791 790 789 789 788 787 786 785 785 784 784 783 783 782 780 779 778 777 776 774 773 772 771 770 768 766 765 764 762 761
785 787 788 789 789 789 789 789 789 789 789 790 789 788 787 786 786 785 784 784 783 783 782 781 780 778 777 777 776 775 774 772 771 770 769 767 765 764 762 761 759 758
782 783 785 786 787 787 787 786 786 786 787 787 787 786 785 785 784 783 783 782 781 781 780 779 778 776 775 774 773 772 772 771 770 768 767 765 764 761 759 757 756 756
779 781 782 783 784 785 784 783 783 783 783 784 784 784 783 783 782 781 780 779 779 778 777 776 775 774 773 772 770 770 769 768 768 767 764 764 762 759 757 755 753 752
777 779 779 780 781 782 781 781 781 781 781 781 782 781 781 780 779 778 777 776 776 775 774 774 773 771 771 769 768 767 766 765 766 765 762 762 761 758 755 753 751 749
775 777 777 778 779 779 778 780 780 779 779 779 779 779 778 777 776 775 774 773 773 773 771 771 770 768 768 767 765 765 764 762 763 763 760 759 758 756 753 752 750 748
Wind_Speed
3 3 3 3 3 2 3 4 5 6 7 7 8 8 9 9 9 8 8 8 8 9 9 9 10 11 11 12 12 12 12 12 12 12 12 13 14 15 16 18 18 20
3 3 3 3 3 3 3 4 5 6 7 8 8 8 9 9 9 9 9 9 10 9 9 10 10 11 11 12 12 12 12 12 12 12 11 12 14 16 17 18 18 19
3 3 4 4 4 3 3 4 5 6 7 7 8 8 8 9 9 10 10 10 11 10 10 11 11 11 12 12 12 12 12 12 12 12 12 13 14 15 17 18 19 20
4 4 4 4 4 4 4 5 5 6 7 7 8 8 8 9 9 10 10 11 11 11 11 11 11 11 12 12 12 12 12 11 11 11 12 13 14 15 17 19 20 21
4 4 5 5 5 5 5 6 6 6 7 7 8 8 9 9 10 10 11 11 11 12 12 12 12 11 12 13 12 12 13 12 11 12 13 13 14 15 17 18 20 22
5 5 5 6 6 6 6 6 7 8 8 9 9 9 9 10 10 11 11 12 12 13 13 13 13 12 12 13 12 12 12 12 12 13 13 13 15 16 17 19 21 22
6 6 6 7 7 7 7 7 8 9 10 10 9 10 11 11 11 12 12 12 13 13 14 14 14 13 12 12 12 11 12 12 12 13 14 15 16 17 18 20 21 22
7 7 7 7 7 7 7 8 9 10 10 10 10 11 11 11 12 13 13 13 14 14 14 14 14 14 12 11 11 11 11 11 11 13 15 16 17 18 19 20 21 22
7 7 8 8 8 8 9 9 10 11 10 9 10 11 11 12 13 14 14 15 15 16 16 15 15 14 12 10 11 12 11 10 11 13 14 15 17 18 19 19 19 21
8 8 8 9 9 9 9 10 11 11 9 8 10 12 12 13 13 14 15 15 16 17 17 16 16 14 13 11 11 11 11 10 11 12 13 15 17 17 18 18 18 20
9 9 9 9 9 9 10 11 11 11 10 10 12 13 13 14 14 14 15 15 16 17 17 17 18 17 16 15 13 11 11 11 10 11 13 14 15 16 16 17 17 18
9 9 9 10 10 10 11 11 11 11 11 12 12 13 14 15 15 15 15 16 17 17 17 18 18 18 17 17 15 13 11 10 10 12 13 14 14 14 15 16 16 16
9 9 10 10 9 10 10 11 11 11 11 12 13 14 16 16 15 15 15 16 18 18 18 16 15 16 16 15 15 15 13 10 11 13 14 14 13 13 13 14 14 14
9 9 10 10 9 10 10 11 10 10 11 12 14 15 15 15 16 16 15 16 17 18 18 16 14 15 17 15 14 15 13 11 12 13 15 15 13 13 13 12 12 13
9 9 10 9 9 10 11 11 10 10 11 12 14 14 15 16 16 16 16 17 18 17 17 15 14 16 18 16 14 13 12 12 13 15 16 15 14 13 12 12 11 12
10 10 10 10 10 10 11 11 11 11 12 13 13 14 15 16 16 15 16 17 17 16 15 14 13 14 14 13 14 14 13 13 15 16 16 15 15 14 13 13 11 12
10 10 11 11 11 11 12 12 12 11 12 13 13 14 15 15 14 14 15 16 16 16 15 13 11 11 11 10 12 15 16 15 15 17 16 16 16 16 14 13 12 13
10 10 11 11 11 12 12 12 12 12 12 13 13 13 14 14 13 14 14 15 15 15 14 13 11 10 11 10 11 14 16 16 16 16 17 17 16 16 15 13 13 14
11 11 11 11 12 12 13 13 12 12 12 12 12 12 13 13 13 14 15 14 14 14 14 14 13 12 11 11 11 13 15 16 17 17 18 18 17 16 15 14 14 14
11 11 12 12 12 12 13 13 13 12 12 12 12 12 12 12 13 15 14 11 12 13 13 13 13 12 12 12 12 13 14 16 18 17 18 19 18 16 16 15 15 14
12 12 12 11 12 13 13 13 13 12 11 11 12 12 12 11 12 13 12 9 9 10 11 12 12 12 14 15 16 16 16 16 17 17 18 20 18 16 17 18 16 16
13 12 12 12 12 13 13 13 12 11 11 12 13 13 12 11 11 12 11 9 8 7 9 11 12 15 17 16 17 18 18 18 17 16 17 20 18 17 18 18 17 16
13 12 12 12 12 13 14 13 11 11 12 12 13 12 12 12 11 11 11 10 10 9 10 12 13 15 16 17 17 17 18 19 17 15 17 20 19 17 17 16 16 17
12 12 12 11 12 13 13 11 11 12 12 12 12 13 13 12 11 11 11 10 10 11 11 12 14 14 15 18 18 16 17 20 19 17 19 23 22 18 14 15 17 19
11 12 12 12 12 13 12 10 11 12 12 12 13 14 14 13 12 12 12 11 11 12 12 12 13 13 14 17 18 16 18 22 21 17 18 22 23 19 15 15 17 19
11 12 12 11 12 12 11 10 11 12 12 12 14 16 17 16 14 13 12 12 12 12 13 13 12 12 14 17 19 18 19 20 21 18 16 19 21 20 18 17 17 18
Wind_Direction
263 261 276 276 265 275 284 292 300 302 303 300 298 300 302 302 301 301 300 298 301 304 307 313 315 315 315 314 315 314 314 314 313 315 312 307 306 305 305 304 301 298
252 254 257 254 249 254 269 287 300 302 300 296 294 295 297 298 297 297 296 294 294 294 299 305 307 309 310 310 312 312 313 315 315 317 317 313 310 308 308 310 309 306
243 249 247 249 252 254 267 280 289 295 297 295 292 291 291 294 297 296 294 290 288 287 291 296 298 303 307 307 308 307 308 310 313 317 319 318 316 312 313 315 314 312
236 243 244 247 248 247 258 273 281 290 297 299 296 291 287 289 292 292 290 287 284 284 286 289 293 300 305 306 308 309 305 303 307 314 316 317 317 315 316 317 316 315
233 234 238 240 240 245 255 265 276 286 296 300 300 295 290 289 289 288 289 288 287 288 288 289 292 297 304 309 312 309 304 304 310 315 314 313 317 318 316 316 316 315
229 225 228 234 235 244 254 265 282 290 292 294 296 296 292 289 287 286 287 288 289 292 293 294 294 294 301 307 310 308 305 307 314 317 315 313 317 319 317 317 317 316
225 221 224 232 236 243 255 270 279 280 283 285 286 290 290 288 287 286 287 288 290 292 293 293 293 293 298 302 304 305 304 305 309 312 314 313 314 317 319 320 319 317
225 225 225 231 239 245 257 269 272 270 275 276 277 284 287 286 288 287 286 287 287 289 290 290 289 291 295 297 298 300 298 300 305 309 313 313 313 319 322 323 321 319
223 227 229 234 241 246 257 275 280 271 268 273 282 289 289 286 287 285 284 285 286 286 285 285 284 287 292 293 294 294 289 294 306 310 312 312 314 321 324 325 325 324
223 225 231 239 244 249 257 272 279 279 289 301 294 288 287 286 286 283 282 282 283 285 285 282 281 284 288 287 287 288 287 293 305 308 308 311 316 323 326 326 329 329
224 229 235 241 246 254 262 270 281 291 301 294 283 284 291 292 288 286 287 285 284 285 286 284 284 288 292 291 289 289 289 293 302 304 306 311 317 322 324 327 332 333
225 232 239 243 247 254 261 268 278 286 290 292 298 303 299 292 288 289 291 291 289 286 283 280 280 285 291 295 296 297 294 294 298 298 301 309 315 318 321 327 335 336
228 233 240 245 249 256 262 267 276 287 296 302 303 297 291 290 292 293 293 293 293 289 284 281 278 278 282 285 290 293 292 290 291 292 298 306 309 312 318 325 333 335
232 236 241 244 248 255 262 268 276 287 290 290 289 286 289 294 296 296 296 294 293 290 288 287 283 280 279 277 275 278 279 280 283 288 297 302 304 307 314 321 328 331
231 237 240 242 245 253 260 266 274 281 283 287 288 286 290 295 298 300 300 295 292 290 291 291 285 279 278 274 265 265 273 279 283 290 296 299 300 301 307 312 318 322
227 234 238 239 242 251 261 267 272 276 284 291 291 288 292 296 297 296 294 294 295 294 294 292 284 278 276 266 260 268 278 282 287 294 297 296 296 296 300 306 306 309
227 234 237 238 241 250 260 268 271 274 283 289 289 291 293 293 293 294 295 297 298 297 297 295 290 288 288 278 273 279 283 283 288 296 296 293 293 293 295 301 301 302
231 237 241 242 245 252 259 266 271 274 279 284 287 291 294 294 294 294 294 294 294 294 296 295 296 293 290 290 290 289 287 283 283 290 294 293 292 290 288 294 300 301
233 239 245 247 248 253 259 264 269 272 275 281 286 291 295 296 296 295 295 297 302 307 307 307 307 300 292 293 293 290 288 281 276 281 291 293 291 287 282 285 296 300
233 237 244 249 251 253 257 261 265 268 272 280 286 288 292 294 298 299 298 302 309 307 303 305 305 300 299 301 297 293 288 279 274 278 288 293 289 286 281 280 289 297
229 236 243 251 256 254 254 259 261 259 265 277 282 283 285 287 294 298 300 314 324 306 293 295 294 293 298 298 295 292 286 279 275 276 285 291 288 284 283 281 284 292
226 235 243 251 258 259 257 259 258 253 259 271 273 275 279 281 289 294 296 308 321 309 298 297 295 297 300 298 295 290 280 274 272 272 285 295 292 286 284 281 281 285
226 235 243 248 257 262 262 262 258 253 257 263 265 270 275 278 282 284 284 290 299 301 301 299 299 303 302 298 298 291 276 269 270 276 293 302 299 290 283 280 280 284
232 240 243 244 252 260 262 263 262 260 259 259 263 271 276 276 276 276 276 279 285 291 296 297 299 301 299 298 300 293 277 270 272 284 298 302 302 297 289 284 286 291
239 247 247 245 252 261 261 261 267 269 262 257 263 272 275 275 273 274 277 280 286 293 295 295 297 298 299 304 305 299 288 277 270 276 292 299 303 306 306 300 296 300
243 249 247 247 254 261 259 258 266 270 266 264 268 274 277 278 278 279 278 278 284 292 293 293 297 298 300 305 304 299 293 282 269 268 282 295 301 308 313 313 309 309